When you browse on this site, cookies collect data to enhance your experience and personalize the content and advertising you see.
Visit our Privacy Policy to learn more. By continuing to use the site, you agree to this use of cookies and data.
  • In Slovakia
  • List of Countries
  • For 7 days
  • Water Temperature
  • Weather Map
  • Weather Widgets
  • user-avatar
    Login

    Hourly Weather Korçe

    Today, 19 January, Sunday

    Time Temperature Precipitation Wind Pressure Humidity
    00:00 +1°C° 0 mm 1 mps 667 mmHg 89%
    01:00 +1°C° 0 mm 1 mps 667 mmHg 90%
    02:00 +1°C° 0 mm 1 mps 667 mmHg 90%
    03:00 +1°C° 0 mm 1 mps 666 mmHg 89%
    04:00 0°C° 0 mm 1 mps 666 mmHg 89%
    05:00 0°C° 0 mm 1 mps 666 mmHg 88%
    06:00 0°C° 0 mm 1 mps 666 mmHg 87%
    07:00 0°C° 0 mm 1 mps 666 mmHg 86%
    08:00 +1°C° 0 mm 1 mps 667 mmHg 81%
    09:00 +3°C° 0 mm 1 mps 667 mmHg 76%
    10:00 +4°C° 0 mm 1 mps 668 mmHg 70%
    11:00 +5°C° 0 mm 1 mps 668 mmHg 68%
    12:00 +6°C° 0 mm 1 mps 668 mmHg 66%
    13:00 +7°C° 0 mm 1 mps 669 mmHg 65%
    14:00 +6°C° 0 mm 1 mps 669 mmHg 69%
    15:00 +6°C° 0 mm 1 mps 669 mmHg 73%
    16:00 +5°C° 0 mm 1 mps 669 mmHg 77%
    17:00 +4°C° 0 mm 1 mps 669 mmHg 81%
    18:00 +3°C° 0 mm 1 mps 669 mmHg 85%
    19:00 +2°C° 0 mm 1 mps 669 mmHg 88%
    20:00 +2°C° 0 mm 1 mps 670 mmHg 88%
    21:00 +1°C° 0 mm 1 mps 670 mmHg 88%
    22:00 +1°C° 0 mm 1 mps 671 mmHg 87%
    23:00 +1°C° 0 mm 1 mps 671 mmHg 87%

    Tomorrow, 20 January, Monday

    Time Temperature Precipitation Wind Pressure Humidity
    00:00 0°C° 0 mm 1 mps 672 mmHg 87%
    01:00 0°C° 0 mm 1 mps 672 mmHg 87%
    02:00 0°C° 0 mm 1 mps 672 mmHg 87%
    03:00 -2°C° 0 mm 2 mps 672 mmHg 87%
    04:00 -2°C° 0 mm 2 mps 672 mmHg 87%
    05:00 -2°C° 0 mm 2 mps 673 mmHg 87%
    06:00 -3°C° 0 mm 2 mps 673 mmHg 86%
    07:00 -3°C° 0 mm 2 mps 674 mmHg 86%
    08:00 -1°C° 0 mm 2 mps 674 mmHg 79%
    09:00 +1°C° 0 mm 2 mps 675 mmHg 72%
    10:00 +3°C° 0 mm 2 mps 676 mmHg 65%
    11:00 +5°C° 0 mm 1 mps 676 mmHg 62%
    12:00 +6°C° 0 mm 1 mps 677 mmHg 59%
    13:00 +6°C° 0 mm 1 mps 677 mmHg 56%
    14:00 +6°C° 0 mm 1 mps 677 mmHg 59%
    15:00 +5°C° 0 mm 1 mps 677 mmHg 63%
    16:00 +4°C° 0 mm 1 mps 677 mmHg 66%
    17:00 +3°C° 0 mm 1 mps 677 mmHg 70%
    18:00 +2°C° 0 mm 1 mps 677 mmHg 73%
    19:00 -1°C° 0 mm 2 mps 677 mmHg 76%
    20:00 -2°C° 0 mm 2 mps 677 mmHg 74%
    21:00 -2°C° 0 mm 2 mps 678 mmHg 73%
    22:00 -2°C° 0 mm 2 mps 678 mmHg 71%
    23:00 -2°C° 0 mm 2 mps 678 mmHg 68%

    Day after tomorrow, 21 January, Tuesday

    Time Temperature Precipitation Wind Pressure Humidity
    00:00 -3°C° 0 mm 2 mps 678 mmHg 64%
    01:00 -3°C° 0 mm 2 mps 678 mmHg 61%
    02:00 -3°C° 0 mm 2 mps 678 mmHg 57%
    03:00 -3°C° 0 mm 2 mps 678 mmHg 53%
    04:00 -3°C° 0 mm 2 mps 678 mmHg 50%
    05:00 -3°C° 0 mm 2 mps 678 mmHg 46%
    06:00 -3°C° 0 mm 2 mps 678 mmHg 43%
    07:00 -3°C° 0 mm 2 mps 678 mmHg 40%
    08:00 +1°C° 0 mm 1 mps 679 mmHg 35%
    09:00 +3°C° 0 mm 1 mps 679 mmHg 31%
    10:00 +5°C° 0 mm 1 mps 680 mmHg 26%
    11:00 +6°C° 0 mm 1 mps 680 mmHg 25%
    12:00 +7°C° 0 mm 1 mps 680 mmHg 25%
    13:00 +8°C° 0 mm 1 mps 680 mmHg 24%
    14:00 +7°C° 0 mm 1 mps 679 mmHg 31%
    15:00 +6°C° 0 mm 1 mps 678 mmHg 37%
    16:00 +5°C° 0 mm 1 mps 678 mmHg 43%
    17:00 +3°C° 0 mm 1 mps 677 mmHg 44%
    18:00 +2°C° 0 mm 1 mps 677 mmHg 44%
    19:00 +1°C° 0 mm 1 mps 677 mmHg 44%
    20:00 +1°C° 0 mm 1 mps 676 mmHg 43%
    21:00 0°C° 0 mm 1 mps 676 mmHg 42%
    22:00 0°C° 0 mm 1 mps 676 mmHg 42%
    23:00 0°C° 0 mm 1 mps 676 mmHg 40%

    22 January, Wednesday

    Time Temperature Precipitation Wind Pressure Humidity
    00:00 +1°C° 0 mm 1 mps 676 mmHg 39%
    01:00 +1°C° 0 mm 1 mps 675 mmHg 37%
    02:00 +1°C° 0 mm 1 mps 675 mmHg 36%
    03:00 +1°C° 0 mm 1 mps 675 mmHg 35%
    04:00 +1°C° 0 mm 1 mps 675 mmHg 33%
    05:00 +1°C° 0 mm 1 mps 674 mmHg 32%
    06:00 +1°C° 0 mm 1 mps 674 mmHg 31%
    07:00 +1°C° 0 mm 1 mps 674 mmHg 30%
    08:00 +3°C° 0 mm 1 mps 675 mmHg 29%
    09:00 +5°C° 0 mm 1 mps 675 mmHg 27%
    10:00 +7°C° 0 mm 0 mps 676 mmHg 26%
    11:00 +8°C° 0 mm 1 mps 676 mmHg 28%
    12:00 +9°C° 0 mm 1 mps 675 mmHg 29%
    13:00 +10°C° 0 mm 1 mps 675 mmHg 30%
    14:00 +8°C° 0 mm 1 mps 674 mmHg 38%
    15:00 +7°C° 0 mm 1 mps 674 mmHg 46%
    16:00 +5°C° 0 mm 1 mps 673 mmHg 54%
    17:00 +4°C° 0 mm 1 mps 672 mmHg 54%
    18:00 +3°C° 0 mm 1 mps 672 mmHg 54%
    19:00 +2°C° 0 mm 1 mps 671 mmHg 54%
    20:00 +2°C° 0 mm 1 mps 671 mmHg 50%
    21:00 +2°C° 0 mm 1 mps 671 mmHg 47%
    22:00 +2°C° 0 mm 1 mps 671 mmHg 43%
    23:00 +2°C° 0 mm 1 mps 671 mmHg 42%

    23 January, Thursday

    Time Temperature Precipitation Wind Pressure Humidity
    00:00 +1°C° 0 mm 1 mps 671 mmHg 40%
    01:00 +1°C° 0 mm 1 mps 670 mmHg 38%
    02:00 +1°C° 0 mm 1 mps 670 mmHg 37%
    03:00 +1°C° 0 mm 1 mps 670 mmHg 37%
    04:00 +1°C° 0 mm 1 mps 669 mmHg 36%
    05:00 +1°C° 0 mm 1 mps 669 mmHg 37%
    06:00 +1°C° 0 mm 1 mps 669 mmHg 38%
    07:00 +1°C° 0 mm 1 mps 669 mmHg 38%
    08:00 +3°C° 0 mm 1 mps 670 mmHg 37%
    09:00 +5°C° 0 mm 1 mps 670 mmHg 36%
    10:00 +6°C° 0 mm 2 mps 671 mmHg 35%
    11:00 +7°C° 0 mm 2 mps 671 mmHg 36%
    12:00 +8°C° 0 mm 2 mps 671 mmHg 37%
    13:00 +9°C° 0 mm 2 mps 671 mmHg 38%
    14:00 +8°C° 0 mm 2 mps 671 mmHg 43%
    15:00 +7°C° 0 mm 2 mps 671 mmHg 48%
    16:00 +6°C° 0 mm 2 mps 671 mmHg 53%
    17:00 +4°C° 0 mm 2 mps 671 mmHg 53%
    18:00 +3°C° 0 mm 2 mps 671 mmHg 53%
    19:00 +2°C° 0 mm 2 mps 671 mmHg 52%
    20:00 +2°C° 0 mm 2 mps 671 mmHg 52%
    21:00 +2°C° 0 mm 2 mps 671 mmHg 51%
    22:00 0°C° 0 mm 3 mps 672 mmHg 51%
    23:00 0°C° 0 mm 3 mps 672 mmHg 53%

    24 January, Friday

    Time Temperature Precipitation Wind Pressure Humidity
    00:00 -1°C° 0 mm 3 mps 672 mmHg 55%
    01:00 -1°C° 0 mm 3 mps 672 mmHg 58%
    02:00 -2°C° 0 mm 2 mps 672 mmHg 63%
    03:00 -2°C° 0 mm 2 mps 672 mmHg 69%
    04:00 -2°C° 0 mm 2 mps 672 mmHg 74%
    05:00 -2°C° 0 mm 2 mps 672 mmHg 77%
    06:00 -2°C° 0 mm 2 mps 673 mmHg 80%
    07:00 -2°C° 0 mm 2 mps 673 mmHg 83%
    08:00 -1°C° 0 mm 2 mps 674 mmHg 75%
    09:00 +2°C° 0 mm 2 mps 674 mmHg 67%
    10:00 +4°C° 0 mm 2 mps 675 mmHg 59%
    11:00 +5°C° 0 mm 2 mps 675 mmHg 56%
    12:00 +6°C° 0 mm 2 mps 675 mmHg 53%
    13:00 +7°C° 0 mm 2 mps 676 mmHg 49%
    14:00 +7°C° 0 mm 1 mps 675 mmHg 55%
    15:00 +6°C° 0 mm 1 mps 675 mmHg 61%
    16:00 +6°C° 0 mm 1 mps 675 mmHg 67%
    17:00 +4°C° 0 mm 1 mps 674 mmHg 72%
    18:00 +3°C° 0 mm 1 mps 674 mmHg 77%
    19:00 +2°C° 0 mm 1 mps 673 mmHg 83%
    20:00 +2°C° 0 mm 1 mps 673 mmHg 85%
    21:00 +2°C° 0 mm 1 mps 673 mmHg 87%
    22:00 +1°C° 0 mm 1 mps 673 mmHg 89%
    23:00 +1°C° 0 mm 1 mps 673 mmHg 90%
    Show more